Location: Unspecified
(51.5147°N, 7.4673°E)
Time: 16:26:39
(UTC+01:00)

Transit 4A - Pass Details

Date: 17 February 2026
Orbit: 864 x 977 km, 66.8° (Epoch: 10 March)

Event Time Altitude Azimuth Distance (km) Brightness Sun altitude
Exits shadow 04:54:18 55° 194° (SSW) 1,069 8.0 -26.3°
Maximum altitude 04:55:38 77° 124° (SE) 925 7.8 -26.1°
Drops below altitude 10° 05:01:41 10° 40° (NE) 2,617 10.9 -25.2°
Sets 05:04:15 0° 39° (NE) 3,581 11.7 -24.8°
